TimeEDT,TemperatureF,Dew PointF,Humidity,Sea Level PressureIn,VisibilityMPH,Wind Direction,Wind SpeedMPH,Gust SpeedMPH,PrecipitationIn,Events,Conditions,WindDirDegrees,DateUTC
12:53 AM,48.0,46.0,93,30.31,10.0,Calm,Calm,-,N/A,,Scattered Clouds,0,2013-05-19 04:53:00
1:53 AM,48.9,46.0,90,30.30,9.0,Calm,Calm,-,N/A,,Overcast,0,2013-05-19 05:53:00
2:53 AM,48.9,46.9,93,30.30,10.0,Calm,Calm,-,N/A,,Overcast,0,2013-05-19 06:53:00
3:53 AM,50.0,48.0,93,30.30,9.0,Calm,Calm,-,N/A,,Overcast,0,2013-05-19 07:53:00
4:53 AM,50.0,48.0,93,30.31,9.0,Calm,Calm,-,N/A,,Overcast,0,2013-05-19 08:53:00
5:53 AM,51.1,48.0,89,30.32,10.0,Calm,Calm,-,N/A,,Overcast,0,2013-05-19 09:53:00
6:09 AM,51.8,48.2,88,30.33,10.0,Calm,Calm,-,N/A,,Overcast,0,2013-05-19 10:09:00
6:46 AM,53.6,50.0,88,30.33,10.0,Calm,Calm,-,N/A,,Overcast,0,2013-05-19 10:46:00
6:53 AM,53.1,50.0,89,30.33,10.0,Calm,Calm,-,N/A,,Overcast,0,2013-05-19 10:53:00
8:53 AM,57.0,51.1,81,30.35,10.0,Calm,Calm,-,N/A,,Overcast,0,2013-05-19 12:53:00
9:31 AM,57.2,51.8,82,30.35,10.0,South,4.6,-,N/A,,Overcast,170,2013-05-19 13:31:00
9:53 AM,57.9,51.1,78,30.36,10.0,South,4.6,-,N/A,,Overcast,190,2013-05-19 13:53:00
10:53 AM,59.0,54.0,83,30.36,9.0,South,5.8,-,0.00,Rain,Light Rain,190,2013-05-19 14:53:00
11:53 AM,59.0,54.0,83,30.35,10.0,SSE,6.9,-,0.01,,Overcast,160,2013-05-19 15:53:00
12:53 PM,59.0,53.1,81,30.34,10.0,South,9.2,16.1,N/A,,Overcast,170,2013-05-19 16:53:00
1:53 PM,59.0,53.1,81,30.32,9.0,SSE,8.1,-,0.00,Rain,Light Rain,160,2013-05-19 17:53:00
2:27 PM,57.2,53.6,88,30.31,5.0,SSE,3.5,-,0.00,Rain,Light Rain,150,2013-05-19 18:27:00
2:39 PM,57.2,53.6,88,30.31,2.0,SSE,3.5,-,0.01,Rain,Light Rain,150,2013-05-19 18:39:00
3:03 PM,57.2,55.4,94,30.31,4.0,Calm,Calm,-,0.00,Rain,Light Rain,0,2013-05-19 19:03:00
3:13 PM,57.2,53.6,88,30.30,4.0,Calm,Calm,-,0.00,Rain,Light Rain,0,2013-05-19 19:13:00
3:31 PM,57.2,53.6,88,30.30,2.0,Calm,Calm,-,0.02,Rain,Light Rain,0,2013-05-19 19:31:00
3:35 PM,55.4,55.4,100,30.30,1.8,SE,3.5,-,0.02,Rain,Light Rain,140,2013-05-19 19:35:00
3:47 PM,55.4,53.6,94,30.29,2.0,SE,5.8,-,0.03,Rain,Light Rain,140,2013-05-19 19:47:00
4:00 PM,55.4,53.6,94,30.29,4.0,SSE,3.5,-,0.00,Rain,Light Rain,160,2013-05-19 20:00:00
4:19 PM,55.4,55.4,100,30.28,3.0,SSE,4.6,-,0.00,Rain,Light Rain,160,2013-05-19 20:19:00
4:48 PM,57.2,55.4,94,30.28,1.8,Calm,Calm,-,0.01,Rain,Light Rain,0,2013-05-19 20:48:00
4:53 PM,57.0,55.0,93,30.28,1.8,SE,3.5,-,0.01,Rain,Light Rain,130,2013-05-19 20:53:00
5:05 PM,57.2,55.4,94,30.28,2.0,SSE,3.5,-,0.00,Rain,Light Rain,160,2013-05-19 21:05:00
5:48 PM,55.4,55.4,100,30.27,2.0,South,4.6,-,0.01,Rain,Light Rain,170,2013-05-19 21:48:00
5:53 PM,55.9,55.0,97,30.27,2.5,South,5.8,-,0.01,Rain,Light Rain,170,2013-05-19 21:53:00
5:59 PM,55.4,53.6,94,30.27,3.0,SSE,5.8,-,0.00,Rain,Light Rain,160,2013-05-19 21:59:00
6:53 PM,55.9,54.0,93,30.26,3.0,Calm,Calm,-,0.00,,Overcast,0,2013-05-19 22:53:00
7:03 PM,55.4,53.6,94,30.26,1.8,SSE,3.5,-,0.01,Rain,Light Rain,150,2013-05-19 23:03:00
7:50 PM,55.4,55.4,100,30.25,2.0,Calm,Calm,-,0.04,Rain,Light Rain,0,2013-05-19 23:50:00
7:53 PM,55.9,54.0,93,30.25,2.0,SSE,3.5,-,0.04,Rain,Light Rain,160,2013-05-19 23:53:00
8:53 PM,55.9,55.0,97,30.25,3.0,Calm,Calm,-,0.03,Rain,Light Rain,0,2013-05-20 00:53:00
9:00 PM,55.4,53.6,94,30.25,2.5,Calm,Calm,-,0.01,Rain,Light Rain,0,2013-05-20 01:00:00
9:11 PM,55.4,53.6,94,30.24,4.0,Calm,Calm,-,0.01,Rain,Light Rain,0,2013-05-20 01:11:00
9:19 PM,55.4,55.4,100,30.24,4.0,Calm,Calm,-,0.01,Rain,Light Rain,0,2013-05-20 01:19:00
9:32 PM,55.4,55.4,100,30.24,2.5,Calm,Calm,-,0.02,Rain,Light Rain,0,2013-05-20 01:32:00
9:53 PM,55.9,55.0,97,30.24,4.0,Calm,Calm,-,0.03,Rain,Light Rain,0,2013-05-20 01:53:00
10:15 PM,55.4,55.4,100,30.23,2.5,SSE,4.6,-,0.01,Rain,Light Rain,160,2013-05-20 02:15:00
10:45 PM,55.4,55.4,100,30.22,3.0,South,6.9,-,0.03,Rain,Light Rain,170,2013-05-20 02:45:00
10:53 PM,55.9,55.0,97,30.22,2.5,Calm,Calm,-,0.04,Rain,Light Rain,0,2013-05-20 02:53:00
10:58 PM,55.4,55.4,100,30.22,3.0,South,4.6,-,0.00,Rain,Light Rain,170,2013-05-20 02:58:00
11:53 PM,57.0,55.0,93,30.20,3.0,SSE,3.5,-,0.00,,Overcast,150,2013-05-20 03:53:00